SCP
-0 -0 0 -0 -0 0 0 0 0 0 0 0 0 0 0 0 0 0 0 0 0 0 0 0 0 0 0 0 0 0 0 0
-0 -0 -0 0 0 0 0 0 0 0 0 0 0 0 0 0 0 0 0 0 0 0 0 0 0 0 0 0 0 0 0 0
0 0 0 0 0 0 0 0 0 0 0 0 0 0 0 0 0 0 0 0 0 0 0 0 0 0 0 0 0 0 0 0
0 0 0 0 0 0 1 1 1 1 1 1 0 0 0 -0 0 0 0 0 0 0 1 1 1 1 1 0 0 0 0 0
0 0 0 0 0 0 0 1 1 1 0 0 1 1 1 0 0 0 0 0 0 0 1 1 1 1 1 1 0 0 0 0
0 0 0 0 0 0 0 0 0 0 0 0 0 0 0 1 1 1 1 1 1 1 1 1 1 1 1 0 0 0 0 0
0 0 0 0 0 0 0 0 0 0 0 0 0 0 0 0 0 0 1 0 0 1 1 1 1 1 1 0 0 1 0 0
0 0 0 0 0 0 0 0 0 0 0 0 0 0 0 0 0 0 0 0 0 0 1 1 1 1 1 1 1 1 1 0
0 0 0 0 -0 -0 -0 -0 0 0 0 0 0 0 0 0 0 0 0 0 0 0 0 0 0 0 1 1 1 1 1 1
-0 0 -0 0 -0 -0 0 0 0 0 0 0 0 0 0 0 0 0 0 0 0 0 0 0 0 0 0 0 0 0 1 1
-0 0 -0 -0 -0 -0 -0 -0 -0 0 0 0 0 0 0 0 0 0 0 0 0 0 0 0 0 0 0 0 0 1 1 1
-0 0 -0 0 -0 -0 -0 -0 -0 0 0 0 0 0 0 0 0 0 0 0 0 0 0 0 0 0 0 0 1 1 1 1
0 0 0 0 0 0 0 0 0 0 0 0 0 0 0 0 0 0 0 0 0 0 0 0 0 0 0 0 0 1 1 1
0 0 0 0 0 0 0 0 0 0 0 0 0 0 0 0 0 0 0 0 0 0 0 0 0 0 0 0 0 0 1 1
0 0 0 0 0 0 0 0 0 0 0 0 0 0 0 0 0 0 0 0 0 0 0 0 0 0 0 0 0 0 0 1
0 0 0 0 0 0 0 0 0 0 0 0 0 0 0 0 0 0 0 0 0 0 0 0 0 0 0 0 0 0 0 0
0 0 0 0 0 0 0 0 0 0 0 0 0 0 0 0 0 0 0 0 0 0 0 0 0 0 0 0 0 0 0 0
0 0 0 0 0 0 0 0 0 0 0 0 0 0 0 0 0 0 0 0 0 0 0 0 0 0 0 0 0 0 0 0
0 0 0 0 0 0 0 0 0 0 0 0 0 0 0 0 0 0 0 0 0 0 0 0 0 0 0 0 0 0 0 0
Wind_Speed_500mb
22 14 11 9 7 8 9 10 10 9 8 7 7 6 6 6 8 11 14 17 19 21 23 25 26 27 27 28 28 29 28 28
19 15 11 10 7 5 6 10 11 10 9 9 10 11 12 13 14 16 18 21 23 25 27 28 30 31 31 32 32 33 33 33
15 14 12 9 7 6 4 6 9 12 14 14 14 14 16 18 20 22 24 26 28 30 31 32 33 33 35 35 36 37 38 38
15 13 11 9 6 5 3 4 8 12 14 17 18 18 19 23 25 27 31 34 36 37 38 39 39 39 39 40 40 41 42 43
19 14 11 10 6 4 4 5 7 10 14 16 19 23 25 27 30 33 36 39 41 43 43 44 46 46 46 46 46 45 46 48
18 17 13 9 9 11 7 9 14 17 19 21 23 27 27 31 35 39 42 42 44 46 47 48 49 49 50 53 53 53 51 54
24 22 19 17 16 16 16 17 19 21 27 30 33 33 34 40 43 44 45 45 45 47 49 47 46 48 51 53 48 50 53 55
20 18 19 21 23 22 21 20 22 26 29 33 38 42 45 47 48 48 49 50 50 51 50 49 49 45 42 42 42 44 49 49
19 18 21 27 31 35 34 33 29 26 26 30 34 37 40 43 46 49 50 51 53 53 53 55 57 58 57 57 53 49 49 50
25 18 22 27 32 39 38 39 40 34 31 32 34 35 37 41 45 47 48 51 55 56 57 58 59 61 63 62 62 59 58 56
26 23 21 23 24 31 32 33 34 29 30 35 40 43 40 38 39 43 46 50 53 56 57 59 59 60 60 61 64 62 64 65
17 16 15 12 16 20 22 25 28 26 28 32 36 42 44 42 43 45 48 49 51 52 57 61 62 62 63 63 66 66 65 67
11 9 8 12 16 19 19 20 22 21 26 30 33 38 42 45 48 51 52 53 55 57 59 61 63 65 61 54 63 68 62 63
9 6 5 11 17 21 23 23 26 29 29 33 37 39 41 44 49 55 61 63 65 67 65 64 64 64 65 64 55 54 63 55
16 13 13 18 22 26 31 34 33 35 37 42 43 44 48 55 60 66 71 77 79 79 75 71 69 65 64 60 57 59 61 63
28 26 25 27 27 34 42 45 45 44 45 48 52 55 58 65 70 75 79 84 89 88 88 82 77 69 64 49 50 57 59 59
32 33 35 35 38 46 49 51 51 51 54 56 59 65 72 78 85 89 92 94 93 94 93 88 81 74 56 45 45 46 53 58
35 37 41 41 45 49 48 45 46 50 56 61 64 79 87 94 99 102 102 100 95 86 65 65 66 65 60 49 45 40 29 45
39 39 37 38 43 41 36 35 42 49 61 70 83 94 103 105 108 105 101 93 84 70 62 61 56 55 53 56 47 51 60 51
Wind_Direction_500mb
166 146 121 130 128 138 163 174 174 166 165 168 174 180 199 236 250 259 267 269 269 272 273 272 270 267 266 267 268 268 267 266
153 124 116 110 103 119 164 184 199 202 200 204 215 220 225 232 243 254 262 267 270 273 276 277 276 273 271 271 270 269 268 268
116 128 126 104 93 106 150 189 206 215 222 230 238 245 251 253 255 259 262 264 267 271 272 273 273 274 274 272 272 270 268 267
113 99 84 72 56 67 110 188 211 216 224 233 242 248 253 257 257 257 261 263 264 266 269 271 271 270 270 270 269 270 269 267
100 90 77 60 49 334 280 240 235 236 233 235 241 244 244 251 256 258 259 260 262 264 265 267 271 272 270 269 268 266 267 269
80 68 60 28 15 17 333 279 259 263 257 252 258 259 259 264 272 275 273 271 269 268 268 268 270 269 270 269 267 265 264 264
78 68 54 38 22 8 347 332 321 294 286 284 277 280 276 278 282 283 278 276 275 274 272 271 271 271 271 269 269 269 264 263
77 71 59 46 34 18 6 349 331 320 313 306 300 295 291 289 289 290 289 288 285 285 278 275 275 273 271 268 266 263 263 262
74 60 55 51 39 27 24 20 2 342 323 312 304 299 295 293 294 292 292 292 292 290 286 283 279 277 275 271 267 265 263 263
89 87 76 55 43 35 27 19 12 5 6 8 0 346 329 316 309 305 301 297 294 293 291 288 285 282 279 276 270 269 267 264
95 90 73 53 42 34 29 21 17 17 14 10 11 8 359 349 338 330 321 311 303 297 294 291 289 286 282 277 273 273 269 264
109 92 61 41 27 19 17 16 12 5 0 357 354 353 353 350 345 339 335 331 323 312 303 295 291 288 284 281 277 275 275 268
126 80 26 4 354 351 347 350 347 338 336 335 335 334 336 338 338 335 332 327 322 319 315 308 300 291 287 285 282 275 271 270
182 199 312 323 322 322 321 315 319 315 316 319 320 319 318 318 318 319 320 321 319 314 310 309 304 298 290 284 281 280 275 269
228 249 275 288 287 295 297 293 294 300 306 308 310 310 309 311 311 311 312 312 313 310 308 306 303 297 291 288 281 274 270 267
236 244 259 266 275 280 282 284 286 288 293 297 303 306 306 307 306 306 305 305 306 304 303 301 299 295 290 285 282 278 274 270
249 254 261 266 271 273 277 278 277 280 287 294 299 302 304 305 305 303 301 299 298 298 297 295 292 289 282 278 272 275 275 272
260 263 269 269 273 280 282 279 274 282 290 296 299 301 302 303 302 301 299 298 297 295 288 286 285 279 276 269 258 248 266 259
255 262 265 269 280 284 282 277 284 293 298 299 301 304 305 305 304 302 301 300 298 294 286 284 280 275 269 264 258 253 246 250
Wind_Speed_850mb
22 14 11 9 7 8 9 10 10 9 8 7 7 6 6 6 8 11 14 17 19 21 23 25 26 27 27 28 28 29 28 28
19 15 11 10 7 5 6 10 11 10 9 9 10 11 12 13 14 16 18 21 23 25 27 28 30 31 31 32 32 33 33 33
15 14 12 9 7 6 4 6 9 12 14 14 14 14 16 18 20 22 24 26 28 30 31 32 33 33 35 35 36 37 38 38
15 13 11 9 6 5 3 4 8 12 14 17 18 18 19 23 25 27 31 34 36 37 38 39 39 39 39 40 40 41 42 43
19 14 11 10 6 4 4 5 7 10 14 16 19 23 25 27 30 33 36 39 41 43 43 44 46 46 46 46 46 45 46 48
18 17 13 9 9 11 7 9 14 17 19 21 23 27 27 31 35 39 42 42 44 46 47 48 49 49 50 53 53 53 51 54
24 22 19 17 16 16 16 17 19 21 27 30 33 33 34 40 43 44 45 45 45 47 49 47 46 48 51 53 48 50 53 55
20 18 19 21 23 22 21 20 22 26 29 33 38 42 45 47 48 48 49 50 50 51 50 49 49 45 42 42 42 44 49 49
19 18 21 27 31 35 34 33 29 26 26 30 34 37 40 43 46 49 50 51 53 53 53 55 57 58 57 57 53 49 49 50
25 18 22 27 32 39 38 39 40 34 31 32 34 35 37 41 45 47 48 51 55 56 57 58 59 61 63 62 62 59 58 56
26 23 21 23 24 31 32 33 34 29 30 35 40 43 40 38 39 43 46 50 53 56 57 59 59 60 60 61 64 62 64 65
17 16 15 12 16 20 22 25 28 26 28 32 36 42 44 42 43 45 48 49 51 52 57 61 62 62 63 63 66 66 65 67
11 9 8 12 16 19 19 20 22 21 26 30 33 38 42 45 48 51 52 53 55 57 59 61 63 65 61 54 63 68 62 63
9 6 5 11 17 21 23 23 26 29 29 33 37 39 41 44 49 55 61 63 65 67 65 64 64 64 65 64 55 54 63 55
16 13 13 18 22 26 31 34 33 35 37 42 43 44 48 55 60 66 71 77 79 79 75 71 69 65 64 60 57 59 61 63
28 26 25 27 27 34 42 45 45 44 45 48 52 55 58 65 70 75 79 84 89 88 88 82 77 69 64 49 50 57 59 59
32 33 35 35 38 46 49 51 51 51 54 56 59 65 72 78 85 89 92 94 93 94 93 88 81 74 56 45 45 46 53 58
35 37 41 41 45 49 48 45 46 50 56 61 64 79 87 94 99 102 102 100 95 86 65 65 66 65 60 49 45 40 29 45
39 39 37 38 43 41 36 35 42 49 61 70 83 94 103 105 108 105 101 93 84 70 62 61 56 55 53 56 47 51 60 51
Wind_Direction_850mb
166 146 121 130 128 138 163 174 174 166 165 168 174 180 199 236 250 259 267 269 269 272 273 272 270 267 266 267 268 268 267 266
153 124 116 110 103 119 164 184 199 202 200 204 215 220 225 232 243 254 262 267 270 273 276 277 276 273 271 271 270 269 268 268
116 128 126 104 93 106 150 189 206 215 222 230 238 245 251 253 255 259 262 264 267 271 272 273 273 274 274 272 272 270 268 267
113 99 84 72 56 67 110 188 211 216 224 233 242 248 253 257 257 257 261 263 264 266 269 271 271 270 270 270 269 270 269 267
100 90 77 60 49 334 280 240 235 236 233 235 241 244 244 251 256 258 259 260 262 264 265 267 271 272 270 269 268 266 267 269
80 68 60 28 15 17 333 279 259 263 257 252 258 259 259 264 272 275 273 271 269 268 268 268 270 269 270 269 267 265 264 264
78 68 54 38 22 8 347 332 321 294 286 284 277 280 276 278 282 283 278 276 275 274 272 271 271 271 271 269 269 269 264 263
77 71 59 46 34 18 6 349 331 320 313 306 300 295 291 289 289 290 289 288 285 285 278 275 275 273 271 268 266 263 263 262
74 60 55 51 39 27 24 20 2 342 323 312 304 299 295 293 294 292 292 292 292 290 286 283 279 277 275 271 267 265 263 263
89 87 76 55 43 35 27 19 12 5 6 8 0 346 329 316 309 305 301 297 294 293 291 288 285 282 279 276 270 269 267 264
95 90 73 53 42 34 29 21 17 17 14 10 11 8 359 349 338 330 321 311 303 297 294 291 289 286 282 277 273 273 269 264
109 92 61 41 27 19 17 16 12 5 0 357 354 353 353 350 345 339 335 331 323 312 303 295 291 288 284 281 277 275 275 268
126 80 26 4 354 351 347 350 347 338 336 335 335 334 336 338 338 335 332 327 322 319 315 308 300 291 287 285 282 275 271 270
182 199 312 323 322 322 321 315 319 315 316 319 320 319 318 318 318 319 320 321 319 314 310 309 304 298 290 284 281 280 275 269
228 249 275 288 287 295 297 293 294 300 306 308 310 310 309 311 311 311 312 312 313 310 308 306 303 297 291 288 281 274 270 267
236 244 259 266 275 280 282 284 286 288 293 297 303 306 306 307 306 306 305 305 306 304 303 301 299 295 290 285 282 278 274 270
249 254 261 266 271 273 277 278 277 280 287 294 299 302 304 305 305 303 301 299 298 298 297 295 292 289 282 278 272 275 275 272
260 263 269 269 273 280 282 279 274 282 290 296 299 301 302 303 302 301 299 298 297 295 288 286 285 279 276 269 258 248 266 259
255 262 265 269 280 284 282 277 284 293 298 299 301 304 305 305 304 302 301 300 298 294 286 284 280 275 269 264 258 253 246 250